DW9234 Weather Reports


time (UTC)temp
F
wind
direction
speed
knots
gust
knots
rain 1hr
in
rain 24hr
in
rain mn
in
humidity
%
barometer
mb
20260902123004 72 154 0.0 1.7 0.00 0.00 0.03 89 1020.2
20260902122004 72 155 0.0 1.7 0.00 0.00 0.03 89 1020.1
20260902121005 72 179 0.0 0.0 0.00 0.00 0.03 89 1019.9
20260902115004 72 180 0.0 0.0 0.00 0.00 0.03 89 1019.9
20260902113005 72 175 0.0 0.0 0.00 0.00 0.03 89 1019.8
20260902111005 72 197 0.0 0.0 0.00 0.00 0.03 89 1019.6
20260902110007 72 196 0.0 0.0 0.00 0.00 0.03 89 1019.5
20260902104004 72 196 0.0 0.0 0.00 0.00 0.03 88 1019.5
20260902102004 72 196 0.0 0.0 0.00 0.00 0.03 88 1019.3
20260902101005 72 196 0.0 0.0 0.00 0.00 0.03 88 1019.3
20260902100004 72 196 0.0 0.0 0.00 0.00 0.03 88 1019.4
20260902095005 72 196 0.0 0.0 0.00 0.00 0.03 88 1019.3
20260902094005 72 196 0.0 0.0 0.00 0.00 0.03 88 1019.3
20260902093005 72 195 0.0 0.0 0.00 0.00 0.03 88 1019.2
20260902091005 72 195 0.0 0.0 0.00 0.00 0.03 88 1018.9
20260902090005 72 195 0.0 0.0 0.00 0.00 0.03 88 1018.7
20260902085004 72 194 0.0 0.0 0.00 0.00 0.03 88 1018.8
20260902084004 72 194 0.0 0.0 0.00 0.00 0.03 88 1018.6
20260902083005 72 194 0.0 0.0 0.00 0.00 0.03 87 1018.7
20260902082005 72 194 0.0 0.0 0.00 0.00 0.03 87 1018.7
20260902075004 72 194 0.0 0.0 0.00 0.00 0.03 87 1018.4
20260902074005 72 193 0.0 0.0 0.00 0.00 0.03 87 1018.4
20260902073004 72 193 0.0 0.0 0.00 0.00 0.03 87 1018.5
20260902072005 72 192 0.0 0.0 0.00 0.00 0.03 87 1018.3
20260902071004 72 192 0.0 0.0 0.00 0.00 0.03 87 1018.3
20260902070006 72 192 0.0 0.0 0.00 0.00 0.03 87 1018.1
20260902065005 72 192 0.0 0.0 0.00 0.00 0.03 87 1017.9
20260902064004 72 192 0.0 0.0 0.00 0.00 0.03 86 1017.9
20260902063005 72 192 0.0 0.0 0.00 0.00 0.03 86 1017.8
20260902062004 72 192 0.0 0.0 0.00 0.00 0.03 86 1017.7
20260902061004 72 191 0.0 0.0 0.00 0.00 0.03 86 1017.6
20260902054004 72 190 0.0 0.0 0.00 0.00 0.02 86 1017.7
20260902053004 72 190 0.0 0.0 0.00 0.00 0.02 85 1017.7
20260902052004 72 190 0.0 0.0 0.00 0.00 0.02 85 1017.7
20260902051005 72 190 0.0 0.0 0.00 0.00 0.02 85 1017.9
20260902050008 72 193 0.0 0.0 0.00 0.00 0.02 85 1018.3
20260902044004 72 192 0.0 0.0 0.00 0.00 0.02 84 1018.4
20260902043004 72 191 0.0 0.0 0.00 0.00 0.01 83 1018.5
20260902042005 72 190 0.0 0.0 0.00 0.00 0.00 83 1018.5
20260902041004 72 191 0.0 0.0 0.00 0.00 0.00 82 1018.7
20260902040005 72 191 0.0 0.0 0.00 0.00 0.67 82 1018.3
20260902034004 72 192 0.0 0.0 0.00 0.00 0.67 81 1017.8
20260902033005 73 202 0.0 0.0 0.00 0.00 0.67 81 1017.5
20260902031004 73 163 0.0 0.0 0.00 0.00 0.67 80 1017.4
20260902025004 73 252 0.0 0.0 0.00 0.00 0.67 80 1017.0
20260902024005 74 253 0.0 0.9 0.00 0.00 0.67 80 1017.1
20260902023005 74 252 0.0 0.0 0.00 0.00 0.67 79 1016.8
20260902022005 73 252 0.0 0.0 0.00 0.00 0.67 79 1016.1
20260902020004 73 252 0.0 0.0 0.00 0.00 0.67 78 1016.0
20260902015005 73 254 0.0 0.0 0.00 0.00 0.67 77 1015.6
20260902014005 73 246 0.0 1.7 0.00 0.00 0.67 76 1015.9
20260902013004 73 200 0.0 5.2 0.00 0.00 0.66 75 1016.3
20260902012005 73 243 3.5 7.8 0.00 0.00 0.66 73 1016.3
20260902011004 75 196 1.7 12.2 0.00 0.00 0.65 70 1017.4
20260902005004 79 236 0.0 7.0 0.00 0.00 0.06 68 1016.4
20260902004005 81 40 7.0 7.0 0.00 0.00 0.00 64 1015.8
20260902003004 82 53 0.0 4.3 0.00 0.00 0.00 72 1016.1
20260902002005 82 50 0.0 0.0 0.00 0.00 0.00 72 1014.5
20260902001004 83 50 0.0 0.0 0.00 0.00 0.00 72 1014.6
20260902000004 83 50 0.0 0.0 0.00 0.00 0.00 71 1014.4
20260901234004 83 40 0.0 0.0 0.00 0.00 0.00 70 1013.4
20260901232004 84 40 0.0 0.0 0.00 0.00 0.00 69 1014.4
20260901231004 84 40 0.0 0.0 0.00 0.00 0.00 69 1014.4
20260901230004 85 40 0.0 0.0 0.00 0.00 0.00 68 1014.5
20260901225006 85 40 0.0 0.0 0.00 0.00 0.00 68 1014.4
20260901224004 86 40 0.0 0.0 0.00 0.00 0.00 67 1014.7
20260901223005 87 40 0.0 0.0 0.00 0.00 0.00 66 1014.4
20260901221005 89 40 0.0 0.0 0.00 0.00 0.00 63 1014.4
20260901214004 90 5 0.0 0.0 0.00 0.00 0.00 59 1014.7
20260901213005 91 122 0.0 0.0 0.00 0.00 0.00 59 1014.5
20260901212004 91 123 0.0 0.9 0.00 0.00 0.00 60 1014.5
20260901210004 92 314 0.0 3.5 0.00 0.00 0.00 56 1014.8
20260901205004 92 318 0.0 1.7 0.00 0.00 0.00 56 1014.9
20260901204004 92 337 0.0 3.5 0.00 0.00 0.00 56 1014.9
20260901203004 92 281 3.5 3.5 0.00 0.00 0.00 56 1015.1
20260901202004 91 131 1.7 7.0 0.00 0.00 0.00 57 1015.2
20260901201005 91 187 0.0 3.5 0.00 0.00 0.00 57 1015.2
20260901200004 91 214 0.0 1.7 0.00 0.00 0.00 56 1015.3
20260901194004 91 285 0.0 1.7 0.00 0.00 0.00 57 1015.5
20260901192005 91 243 0.0 1.7 0.00 0.00 0.00 56 1015.6
20260901191004 90 262 0.9 5.2 0.00 0.00 0.00 56 1015.7
20260901190004 90 338 0.0 3.5 0.00 0.00 0.00 59 1015.8
20260901185005 90 177 0.0 3.5 0.00 0.00 0.00 58 1015.8
20260901184004 90 103 0.0 1.7 0.00 0.00 0.00 60 1015.6
20260901182004 89 298 0.0 1.7 0.00 0.00 0.00 63 1015.8
20260901181004 88 278 0.0 0.0 0.00 0.00 0.00 63 1015.8
20260901180005 87 265 0.0 1.7 0.00 0.00 0.00 66 1015.8
20260901175004 86 58 0.0 1.7 0.00 0.00 0.00 68 1015.9
20260901174006 85 216 0.0 0.0 0.00 0.00 0.00 69 1015.9
20260901173004 84 212 0.0 0.0 0.00 0.00 0.00 71 1016.2
20260901172004 83 207 0.0 0.0 0.00 0.00 0.00 72 1016.3
20260901171004 83 119 0.0 0.0 0.00 0.00 0.00 73 1016.3
20260901170005 83 72 0.0 0.0 0.00 0.00 0.00 75 1016.5
20260901165004 83 74 0.0 0.0 0.00 0.00 0.00 74 1016.7
20260901164004 83 74 0.0 0.0 0.00 0.00 0.00 74 1016.7
20260901161004 84 73 0.0 0.0 0.00 0.00 0.00 71 1016.9
20260901160004 85 73 0.0 0.0 0.00 0.00 0.00 69 1017.0
20260901155004 85 73 0.0 0.0 0.00 0.00 0.00 67 1017.0
20260901154004 85 70 0.0 0.0 0.00 0.00 0.00 67 1017.0
20260901153004 85 82 0.0 0.0 0.00 0.00 0.00 67 1017.0
20260901152005 84 196 0.0 0.9 0.00 0.00 0.00 68 1017.1
20260901151004 84 240 0.0 0.0 0.00 0.00 0.00 70 1017.2
20260901150005 82 259 0.0 3.5 0.00 0.00 0.00 71 1017.3
20260901145004 80 236 0.0 0.0 0.00 0.00 0.00 75 1017.3
20260901144004 80 220 0.0 3.5 0.00 0.00 0.00 76 1017.4
20260901143005 79 281 0.0 3.5 0.00 0.00 0.00 77 1017.4
20260901135004 78 238 0.0 0.0 0.00 0.00 0.00 85 1017.1
20260901134004 78 263 0.0 0.9 0.00 0.00 0.00 88 1017.0
20260901133004 77 272 0.0 3.5 0.00 0.00 0.00 89 1017.1
20260901132004 77 261 0.0 0.0 0.00 0.00 0.00 89 1017.3
20260901131005 76 265 0.0 1.7 0.00 0.00 0.00 89 1017.4
20260901125005 76 79 0.0 0.0 0.00 0.00 0.00 89 1017.6
20260901124004 75 78 0.0 0.0 0.00 0.00 0.00 89 1017.7